Voltar ao catálogo

CZ-6A DEB

AtivoPO
NORAD 61126·DEBRIS·🇨🇳 China

Lançado Aug 6, 2024 de Taiyuan Satellite Launch Center

Loading…

Próximas Passagens (próximas 24 horas)

TLE

AtualizadoSource: Space-Track

Época: Sep 14, 2026, 00:06 UTC

1 61126U 24140PU  26257.00424252  .00005972  00000-0  33124-3 0  9997
2 61126  89.1429 269.0007 0190216 121.0954 240.9102 14.99357105112327

Acompanhe CZ-6A DEB em tempo real com AllMySat

Download on the App Store